Theta_e
341 344 344 340 345 345 351 349 347 348 347 348 346 347 346 347 347 352 345 344 339 338 335 335 334 333 330 328 328 328 327 326 325 325 325 325 326 326 326 327 327 327 326 326 326 326 326 326 325
343 344 344 339 348 349 349 345 348 347 347 348 347 347 347 348 347 345 344 343 338 338 336 332 331 329 328 329 328 327 327 328 329 328 327 327 326 325 324 323 321 320 318 318 317 317 318 319 320
342 342 342 342 344 348 348 342 344 344 348 348 347 347 346 346 343 345 342 342 339 339 335 333 331 330 330 329 328 330 329 327 326 325 324 321 318 316 315 314 313 312 312 311 311 312 312 313 314
341 340 341 343 343 341 342 344 342 346 347 348 346 345 342 339 340 343 342 342 342 339 332 330 329 330 330 331 331 329 327 326 323 318 317 317 317 316 315 313 314 317 317 316 315 314 312 310 310
340 342 346 346 345 341 340 341 343 344 346 346 345 345 344 340 339 341 342 343 343 340 338 331 332 332 332 332 329 327 325 320 318 320 321 320 318 316 315 318 320 319 318 315 315 314 312 312 311
346 346 347 346 345 343 342 341 342 343 343 345 345 345 342 339 339 340 342 342 342 341 339 335 333 332 333 331 328 326 322 321 323 323 322 321 320 321 320 321 321 321 320 320 320 318 317 311 312
345 346 347 347 345 342 341 341 342 341 343 345 344 343 341 338 339 340 341 342 341 340 338 335 332 333 333 329 327 324 321 323 323 323 323 323 322 322 322 322 323 322 322 322 322 321 321 320 320
344 343 345 343 343 340 336 341 341 342 344 344 343 342 341 337 338 340 341 342 341 338 335 333 333 336 332 329 326 321 322 323 323 325 324 323 323 324 324 324 325 324 324 324 323 323 322 322 322
341 343 344 342 341 340 336 339 339 341 344 343 340 343 339 338 335 340 342 342 341 341 340 338 337 336 332 329 324 320 323 323 326 326 325 325 324 325 325 325 325 325 325 323 323 323 323 323 323
339 343 343 339 338 339 338 338 339 339 343 344 345 341 343 340 335 335 340 342 341 341 340 340 340 336 333 328 323 321 323 324 327 326 327 326 326 325 324 325 325 324 324 323 323 323 324 321 323
339 340 339 339 337 338 339 338 338 338 339 340 342 345 342 341 338 337 338 337 336 338 339 340 338 337 333 328 322 321 324 325 327 327 327 327 327 327 326 324 324 324 325 324 324 325 324 323 323
339 339 339 339 339 339 339 337 337 337 340 337 337 337 339 341 339 336 337 336 337 337 338 338 336 334 332 329 323 320 323 325 327 328 328 328 328 327 327 326 325 326 326 326 325 325 323 324 324
339 339 338 338 338 337 336 337 337 339 340 339 338 338 340 343 342 340 336 338 337 336 336 337 336 336 334 331 326 320 325 326 327 328 328 328 328 328 328 327 327 326 327 327 327 326 324 322 322
333 335 336 337 336 334 335 337 338 338 342 341 341 343 342 343 342 339 335 337 337 337 338 338 338 337 337 336 332 328 327 327 329 328 327 328 328 329 329 328 328 327 327 327 327 327 325 322 317
331 336 334 333 335 334 334 337 339 337 344 344 343 342 341 340 339 336 337 338 339 339 340 340 339 339 338 338 337 335 332 323 326 329 327 327 327 328 329 329 329 329 328 326 326 326 325 323 321
332 333 335 333 332 333 334 335 339 336 343 344 343 343 342 341 339 339 340 341 339 336 337 335 337 338 337 336 337 337 336 327 325 329 328 329 329 329 330 329 328 328 327 326 326 325 325 325 322
332 334 334 334 330 333 335 335 338 338 339 342 344 343 344 343 343 342 341 339 339 336 339 338 337 338 337 338 339 336 336 332 329 330 330 330 329 329 328 326 326 325 324 325 324 325 323 321 319
333 333 333 334 332 333 335 337 339 340 339 340 341 342 342 342 340 339 336 334 335 337 340 339 339 334 333 335 337 336 335 333 331 329 329 329 329 328 327 326 323 324 321 323 324 324 322 322 322
332 332 334 333 331 333 335 336 337 336 336 339 341 341 338 335 333 332 337 335 338 340 340 338 333 331 333 332 333 334 334 330 330 330 330 330 326 324 323 323 322 323 323 324 324 323 322 322 321
331 332 333 332 332 334 334 335 335 335 333 333 335 334 334 332 332 338 334 335 337 338 337 336 331 331 333 334 332 332 331 330 330 330 329 326 321 321 321 321 321 320 321 322 321 320 319 319 319
332 331 332 331 332 334 335 336 337 336 335 334 334 335 333 334 339 336 336 334 335 335 336 335 332 332 332 332 331 331 330 330 330 325 323 321 321 321 322 320 318 317 315 312 311 312 311 312 312
333 331 330 330 331 333 334 333 334 335 335 333 336 338 334 334 335 336 335 335 335 334 335 335 334 334 332 332 331 331 331 329 322 321 321 321 321 321 319 316 312 310 309 307 307 307 307 308 311
330 329 330 331 332 332 333 336 336 334 336 335 340 339 336 335 337 336 336 336 337 335 336 336 335 335 334 331 330 328 327 321 322 321 320 320 318 317 314 310 308 307 306 306 306 305 306 308 307
329 330 329 328 330 333 332 334 332 335 336 335 340 338 336 338 337 336 336 337 337 337 336 336 335 331 331 329 327 323 322 319 318 317 318 318 317 313 308 306 306 305 305 305 305 304 304 307 306
329 331 333 333 333 333 332 333 334 333 332 333 340 338 337 338 336 335 335 336 336 336 335 332 331 326 324 323 320 315 314 315 316 318 318 316 309 306 306 306 305 306 306 306 305 304 303 304 305
330 332 334 336 338 335 333 337 337 333 334 333 338 338 337 337 335 333 333 334 334 333 332 325 317 318 318 316 316 316 317 317 320 318 312 306 307 307 308 306 305 307 306 305 305 305 303 303 305
333 335 328 336 335 337 335 335 333 334 335 335 337 337 336 336 333 327 327 330 329 326 322 317 317 317 317 317 318 318 320 319 316 309 307 308 309 309 309 304 307 308 308 308 307 306 305 305 304
333 332 337 336 338 338 336 337 338 336 337 336 337 336 336 336 330 325 325 324 322 318 318 318 318 318 318 319 319 319 319 315 308 308 309 310 310 309 306 304 307 307 308 309 308 306 306 306 304
335 335 333 334 335 338 339 338 334 334 333 336 336 337 336 335 332 330 324 321 320 319 318 318 318 319 319 319 319 319 315 308 308 310 311 311 310 308 304 304 306 308 308 309 308 306 306 306 306
332 334 335 337 338 337 336 338 329 333 332 333 334 335 335 334 331 329 324 321 320 320 320 320 319 319 320 319 319 315 311 309 310 311 311 311 310 305 305 306 307 308 308 308 308 308 308 308 307
Wind_Speed
5 7 5 3 0 1 3 1 2 1 1 1 5 3 2 2 0 2 2 13 20 22 21 18 15 14 12 10 9 8 6 5 5 4 3 3 3 2 3 3 4 5 6 6 7 8 8 9 9
3 3 4 3 2 2 2 2 3 1 3 7 5 3 1 0 2 2 5 15 24 21 20 18 16 14 13 11 9 7 6 5 5 4 4 3 3 4 4 5 6 7 8 8 9 10 10 11 11
5 2 2 2 2 2 2 2 1 2 9 2 2 1 2 1 2 3 6 17 26 21 19 17 16 14 12 10 8 7 6 4 4 4 4 4 5 5 5 5 5 6 7 8 8 9 10 11 12
2 2 4 3 4 1 0 2 3 4 6 3 2 2 1 3 2 5 12 19 22 20 18 17 15 14 12 11 9 8 7 6 5 5 4 3 3 3 3 3 2 3 4 5 6 6 7 7 8
2 1 2 3 5 1 4 4 5 4 3 2 3 1 3 4 4 9 14 20 22 21 19 18 16 13 12 10 8 7 7 6 5 3 2 2 2 2 2 1 2 2 2 3 4 5 6 7 6
1 1 2 4 3 1 3 8 7 7 8 2 3 3 2 4 6 10 16 17 19 18 19 18 15 13 10 10 9 7 6 5 4 3 2 2 2 1 2 0 2 3 3 5 5 6 8 7 5
3 3 3 2 3 2 1 9 7 7 7 7 4 4 3 9 11 13 15 17 18 17 18 17 14 12 11 9 7 7 7 6 5 3 1 2 1 1 1 1 2 4 5 6 7 7 8 8 6
3 1 1 1 1 1 2 6 3 10 7 6 10 5 3 6 15 15 17 18 18 17 17 16 15 13 12 9 9 8 7 6 4 1 1 1 1 1 2 2 2 3 5 6 6 7 8 7 7
2 1 1 1 1 3 1 3 3 4 6 6 8 5 7 5 17 18 22 21 20 19 18 18 17 16 13 11 10 9 8 7 4 2 1 1 1 2 4 3 2 2 3 3 5 7 8 8 8
0 1 2 2 2 1 1 2 4 5 6 6 8 14 11 10 19 20 23 24 22 21 20 20 18 16 14 12 12 11 10 8 6 3 1 1 1 2 2 3 4 4 6 8 9 10 11 11 11
2 3 1 4 8 6 4 5 6 8 9 10 16 14 13 15 19 21 21 18 17 16 19 18 16 16 15 14 14 13 11 9 7 5 3 2 2 4 4 5 6 8 10 12 13 15 15 14 14
4 10 9 6 0 2 4 3 6 11 7 6 8 13 17 18 20 21 20 17 17 18 16 16 17 17 17 17 14 14 12 10 9 8 8 6 6 7 8 9 10 11 14 15 14 17 17 19 20
6 8 5 8 13 8 6 5 4 2 5 5 6 9 14 15 16 17 17 16 16 15 16 17 18 19 17 16 16 15 14 14 12 13 12 11 11 12 13 14 15 16 16 15 17 19 19 16 16
2 9 11 7 6 0 3 2 2 2 4 1 1 4 8 11 13 14 14 15 16 16 18 19 20 20 21 21 18 14 20 17 16 17 17 17 18 18 21 21 23 22 21 21 20 20 21 17 17
4 4 2 3 2 2 2 3 2 6 2 3 2 1 4 7 11 11 11 14 14 15 20 23 19 22 22 24 20 23 19 23 19 16 18 20 22 24 24 26 29 27 27 27 24 23 20 21 21
1 2 3 3 4 2 2 4 1 3 0 1 0 2 4 6 8 12 13 13 11 17 17 17 21 19 19 20 20 21 17 19 19 21 22 21 24 21 24 23 24 23 23 26 28 27 27 20 20
2 2 2 4 2 1 2 3 2 1 3 4 3 4 5 6 9 11 13 16 18 12 6 4 12 16 16 16 17 13 11 13 18 20 22 17 22 20 20 21 24 24 28 27 26 24 26 25 20
4 6 4 5 1 2 2 2 1 4 5 4 4 5 7 6 8 12 14 14 8 4 2 4 6 4 4 7 8 8 10 14 15 16 16 18 20 18 21 22 26 25 27 26 26 28 26 29 26
3 6 8 8 3 3 4 4 7 6 7 8 8 7 7 5 6 6 7 3 1 2 2 7 9 6 6 6 4 8 11 11 10 13 16 17 16 19 20 19 21 22 20 20 23 25 27 28 27
7 8 11 6 3 4 5 9 7 8 6 6 7 5 4 5 4 1 3 2 4 5 5 6 10 4 7 8 5 9 12 12 14 17 13 11 12 13 16 19 20 21 22 22 22 24 27 28 31
11 10 12 10 1 3 3 6 6 6 7 8 8 6 7 6 4 3 2 6 7 6 6 9 8 3 6 10 3 6 9 11 12 9 7 10 13 16 18 18 19 22 23 23 24 26 26 28 31
13 17 13 10 8 10 2 9 5 7 9 8 8 6 10 8 6 5 4 5 7 7 6 6 6 7 7 7 4 5 7 3 4 6 9 13 16 16 18 21 24 25 25 27 26 27 28 25 23
15 8 9 7 7 3 6 5 3 1 10 12 9 6 9 10 8 7 5 4 5 7 7 6 5 6 7 3 1 1 2 2 6 9 12 13 16 19 22 24 25 27 29 30 31 31 29 23 25
8 8 6 1 3 6 7 5 8 5 11 9 7 6 9 11 10 7 6 4 5 6 5 4 3 4 3 2 3 4 4 7 9 11 13 17 19 22 23 23 26 28 30 31 31 30 27 24 24
2 2 6 8 7 10 1 5 10 7 6 8 10 10 10 10 9 7 6 3 4 6 5 4 2 2 5 6 4 6 8 10 12 14 16 20 21 19 21 26 27 27 29 28 27 27 25 23 23
2 2 5 14 12 14 2 5 3 2 1 2 9 10 10 10 9 8 6 5 6 5 4 6 6 6 5 4 5 7 9 11 12 15 19 15 17 19 24 25 24 25 27 27 26 25 21 19 20
4 3 2 2 1 4 3 4 9 3 4 4 10 11 11 9 12 11 7 7 7 8 8 7 6 5 3 2 5 9 10 10 13 17 12 15 18 21 24 23 23 25 26 26 25 23 22 19 15
2 6 3 3 6 10 3 4 8 3 8 9 11 13 13 12 15 12 10 9 9 10 9 6 4 2 3 6 9 11 12 14 14 10 13 17 20 22 23 21 21 23 23 25 23 21 19 16 11
3 3 1 2 2 5 8 4 2 10 8 11 13 15 16 17 17 13 12 11 9 9 10 9 7 7 9 10 11 12 14 14 9 10 14 18 20 21 21 20 21 20 19 21 20 17 17 14 11
2 4 5 5 5 3 3 6 1 8 7 11 15 16 15 16 16 14 14 11 11 12 12 12 11 12 11 11 12 13 15 11 10 12 15 17 20 20 18 19 18 19 19 20 21 18 17 16 13
Wind_Direction
24 3 355 23 113 44 85 98 14 51 105 316 147 172 204 83 275 354 196 171 174 174 173 174 179 180 180 185 183 185 184 184 185 198 202 209 223 242 262 274 279 282 283 282 283 281 280 276 269
15 4 9 44 63 63 83 112 180 195 107 114 104 89 141 279 226 257 148 166 170 174 177 177 179 183 185 188 189 186 186 182 187 188 199 218 235 247 257 270 274 280 282 280 278 277 276 273 271
23 360 29 65 100 106 109 166 180 109 145 89 140 106 173 169 226 211 176 169 166 174 174 177 181 184 189 187 184 185 195 194 196 215 217 229 239 248 253 264 279 286 291 297 296 291 286 282 279
316 350 60 67 71 120 81 83 166 137 193 246 180 194 283 215 239 203 170 169 169 173 176 179 184 189 187 184 188 184 190 197 202 208 211 218 240 250 256 258 276 295 297 300 300 305 303 302 297
354 36 72 68 64 146 221 205 175 186 188 187 192 181 232 219 194 166 168 173 178 178 182 184 188 187 181 185 185 191 194 196 194 191 211 237 246 254 241 286 331 340 351 360 357 342 334 323 319
25 32 65 59 18 235 221 195 173 207 219 171 219 199 257 212 182 169 173 177 183 189 185 185 185 186 188 184 187 191 192 190 195 192 210 239 251 262 221 300 23 28 37 38 33 30 23 16 13
44 13 38 360 360 331 283 173 197 214 213 219 214 203 223 204 184 183 179 184 187 190 189 188 188 190 191 192 196 193 185 189 187 185 238 271 262 239 245 316 360 22 25 25 24 26 31 30 23
72 342 43 346 352 77 350 176 226 189 209 217 203 225 203 214 188 181 185 188 191 189 194 195 195 199 194 197 199 194 190 190 186 212 327 322 273 271 301 315 334 360 24 18 5 358 1 8 9
103 190 360 158 204 17 120 180 146 201 173 187 204 242 231 213 190 186 188 192 195 200 201 201 203 203 201 199 203 199 201 201 199 199 161 261 145 337 307 283 276 336 302 338 318 325 328 323 321
131 308 248 249 248 11 327 319 180 205 212 218 235 239 242 198 195 196 195 197 202 207 207 205 207 207 209 208 206 205 208 210 209 198 169 148 199 348 334 305 289 306 326 312 320 312 307 318 304
166 240 212 304 264 265 281 246 227 245 232 228 227 223 223 204 201 204 204 210 213 213 212 209 210 210 216 214 214 213 216 219 225 227 225 241 266 299 313 309 288 290 298 300 299 302 299 298 303
254 247 241 287 152 265 257 229 230 234 267 256 249 249 233 217 210 208 207 210 212 215 218 214 214 214 214 222 220 225 228 230 237 244 247 254 259 274 282 282 280 288 291 295 295 305 296 298 296
234 287 262 288 278 281 274 266 298 28 320 301 277 243 223 214 211 211 210 216 222 224 226 225 225 227 228 227 233 229 235 236 244 251 252 258 266 263 272 274 272 272 279 291 289 303 295 294 294
276 282 284 288 263 319 312 316 350 360 354 334 235 200 213 217 216 217 211 223 233 238 240 239 237 238 239 233 229 234 248 240 244 252 259 263 267 269 270 274 275 273 275 283 282 284 289 281 286
296 310 343 22 340 11 338 254 340 342 360 39 62 180 219 225 226 234 232 241 251 260 269 249 249 242 245 253 233 248 248 238 243 259 266 276 277 278 281 279 279 280 283 287 274 275 267 276 283
8 66 7 360 343 10 222 18 30 329 359 81 131 244 217 215 225 229 235 249 254 285 281 274 247 250 248 254 257 254 255 239 249 258 275 281 271 281 284 283 289 288 286 282 278 275 268 263 282
9 345 295 309 16 302 297 309 342 272 194 195 201 210 217 229 237 244 253 266 284 286 267 254 234 246 254 264 271 256 238 252 260 272 272 288 281 291 286 292 293 296 295 285 279 275 277 273 261
296 297 270 277 207 110 291 234 262 233 222 195 207 222 238 244 261 260 269 276 293 199 187 212 200 219 237 272 260 228 252 274 275 274 268 282 292 290 294 293 298 290 295 288 282 278 275 272 266
267 268 272 278 274 257 260 210 206 218 250 240 228 236 230 230 228 266 280 281 351 231 226 170 152 122 77 26 293 259 267 272 265 276 289 296 294 302 305 301 297 296 301 295 289 284 279 279 272
265 289 271 285 210 235 231 256 195 207 233 221 208 211 212 206 219 351 47 89 126 124 135 163 165 87 27 3 325 268 271 270 279 289 293 296 305 307 314 318 322 319 316 310 304 299 297 292 292
267 253 278 290 203 246 257 262 207 206 221 212 230 224 206 197 180 137 84 108 134 140 138 167 191 229 351 347 321 254 264 282 282 298 296 301 319 324 326 332 331 325 321 314 309 307 307 302 299
273 277 268 275 293 290 285 294 261 218 204 210 208 214 187 183 172 151 137 136 153 165 156 182 223 256 290 315 300 270 264 259 289 299 312 323 323 325 326 325 323 323 322 320 317 314 308 300 294
267 299 279 286 273 271 232 253 275 279 238 212 179 157 149 157 165 166 174 162 157 171 180 186 213 254 289 282 272 195 153 331 320 317 320 321 325 325 321 323 324 323 323 320 317 314 311 300 291
267 269 270 134 235 258 285 255 287 234 238 208 156 143 146 148 163 172 189 186 165 174 176 194 216 252 278 324 102 84 11 340 331 328 324 322 318 316 318 325 328 329 328 327 323 319 312 303 298
171 240 284 279 258 283 33 242 277 307 284 246 167 160 157 156 167 173 193 194 160 160 166 174 173 83 85 86 43 19 360 340 331 322 318 315 316 325 331 334 333 333 333 332 327 323 317 307 297
174 233 287 293 291 296 134 250 292 5 15 14 163 160 164 159 162 150 160 167 150 149 151 126 101 103 90 63 23 351 332 319 313 315 315 321 327 332 334 334 335 338 340 338 334 330 324 313 307
150 247 48 280 227 268 281 274 265 254 206 174 171 168 167 167 154 147 166 167 149 139 141 127 109 95 68 354 317 314 306 309 311 314 325 330 330 331 331 335 338 339 338 339 337 337 331 327 320
285 127 247 252 277 285 244 273 280 274 228 203 181 184 176 169 163 164 179 165 155 153 153 139 152 170 263 286 293 295 300 309 313 318 328 331 329 325 330 334 340 340 346 341 341 339 328 330 337
172 217 141 285 256 279 294 264 226 295 298 214 193 185 180 175 178 180 185 174 176 195 207 217 232 256 265 281 285 288 302 307 298 317 327 331 331 325 329 331 336 339 340 342 346 348 336 325 327
292 276 227 247 227 228 291 268 272 289 292 206 186 184 182 183 186 190 192 186 199 214 226 239 253 261 273 275 277 290 307 295 296 312 320 324 329 327 329 333 339 342 337 332 332 334 334 334 324